Lid_Strength_Index
1 1 1 1 1 0 0 0 0 0 0 0 -0 -0 -0 -0 0 5 8 4 3 -2 1 6 6 7 7 8 8 10 14 15 14 13 12 11 12 11 11 11 11 10 11 10 10
1 1 1 1 1 1 1 0 1 1 0 0 0 0 0 -0 4 7 2 -2 -3 -2 5 7 8 8 9 9 8 10 15 14 12 12 12 11 11 11 11 12 12 11 10 10 10
1 1 1 1 1 1 1 1 1 1 1 1 0 0 0 1 8 8 -1 -3 -3 -1 5 6 7 8 10 10 9 10 12 11 10 9 10 11 11 10 12 11 11 10 10 10 11
1 1 2 1 1 1 1 1 1 1 1 1 1 0 1 4 13 7 -2 -2 -2 3 6 7 8 9 10 10 9 12 10 10 9 9 10 11 10 11 11 8 9 9 10 10 11
1 1 2 2 1 1 1 1 1 1 1 1 1 0 5 10 9 4 -1 -1 3 5 7 8 9 9 11 11 10 11 10 9 9 9 9 9 10 11 11 8 9 9 10 10 10
1 1 1 1 1 1 1 1 1 1 1 1 1 1 9 13 8 4 4 4 6 7 8 9 9 9 11 11 11 11 10 10 10 10 9 9 9 11 9 9 9 10 10 10 10
2 2 2 2 2 2 1 1 1 1 2 1 1 2 8 11 7 6 6 7 7 8 9 9 9 10 11 12 11 11 12 12 11 11 10 10 12 12 8 10 10 10 10 10 10
2 2 2 2 2 2 2 2 2 2 2 2 2 6 13 7 8 8 8 8 8 8 8 9 9 10 11 11 12 14 14 16 12 12 12 11 14 10 10 10 10 10 10 10 10
2 2 2 2 2 2 2 2 3 3 3 2 6 9 12 5 8 8 8 9 9 9 9 7 9 11 12 14 16 17 18 17 15 12 12 13 14 11 10 11 11 11 11 10 10
2 3 3 3 3 3 3 3 3 4 3 3 5 12 11 10 8 8 9 8 10 10 10 11 12 14 15 16 18 17 19 17 17 14 14 15 14 12 10 12 11 11 10 10 9
2 2 2 3 2 2 4 8 11 12 9 11 11 12 11 8 7 9 8 8 9 11 14 13 15 16 14 14 13 17 17 18 16 13 15 15 14 13 11 11 11 12 11 10 9
2 2 2 2 2 3 8 9 11 10 13 10 10 10 9 8 11 9 8 10 11 13 13 15 16 13 13 14 15 16 16 16 14 13 16 15 15 14 13 12 11 10 10 10 9
2 2 2 2 3 6 9 10 7 8 14 12 11 12 11 9 11 11 9 11 13 14 14 14 14 12 14 15 15 16 16 15 16 15 16 17 16 15 14 13 11 11 10 10 10
3 3 2 2 5 7 9 7 7 8 17 15 13 12 11 11 13 12 11 12 13 14 15 15 13 14 15 16 14 16 14 15 16 18 18 17 20 18 14 13 13 12 11 11 11
3 3 3 3 6 7 7 7 8 12 19 13 14 10 11 14 14 14 12 12 14 14 15 16 15 16 16 14 14 15 15 16 17 19 19 19 20 18 16 15 14 13 12 11 11
3 3 3 4 6 6 7 8 10 15 19 15 14 14 14 14 14 14 14 13 14 16 15 15 15 14 14 14 14 14 16 17 18 19 21 18 18 19 18 16 15 14 12 12 12
3 3 4 4 5 5 7 8 13 17 13 15 16 15 16 16 15 15 16 16 17 19 19 18 16 15 14 16 16 16 17 21 23 23 21 18 20 15 14 13 14 12 13 12 12
4 3 4 4 5 5 6 9 17 13 13 12 13 15 14 14 13 15 17 17 16 17 19 19 17 16 14 15 16 17 17 20 24 22 18 20 20 15 14 13 14 13 13 13 13
4 3 4 3 5 4 6 14 14 12 11 11 11 14 14 14 13 15 17 17 15 15 16 18 18 16 15 14 14 17 18 15 18 23 22 18 17 14 14 14 15 14 14 13 12
7 4 5 3 4 5 9 13 12 10 10 10 14 12 15 15 12 14 14 15 14 14 13 14 17 15 16 15 15 15 14 18 19 22 22 19 17 17 15 13 13 13 13 12 12
5 7 5 3 2 6 13 12 11 9 8 10 11 12 13 13 12 12 12 12 12 13 12 12 13 15 14 16 13 16 16 16 16 17 18 19 17 11 13 14 14 13 13 12 12
5 10 4 2 9 9 11 9 8 8 7 8 9 10 11 11 12 13 13 11 8 9 11 9 12 16 14 13 12 13 14 14 16 17 15 15 15 10 10 10 11 11 9 11 12
7 8 2 3 12 11 9 9 8 9 9 9 10 9 9 11 14 11 10 7 7 9 11 10 14 17 16 14 14 13 12 11 11 13 16 18 15 8 8 9 9 10 12 11 11
8 11 6 5 6 9 10 10 11 7 9 8 9 8 10 11 10 12 12 9 8 8 7 8 12 15 18 16 12 14 12 12 12 16 15 14 13 11 9 10 9 9 10 10 12
9 11 8 13 9 9 9 10 11 11 8 8 10 10 11 13 12 13 11 10 9 8 8 10 15 13 13 12 13 14 14 13 14 12 15 13 13 10 9 9 10 9 11 12 12
10 11 9 11 9 9 9 10 11 10 9 10 10 9 9 12 12 13 11 11 11 11 11 10 15 13 14 13 12 14 13 13 13 13 14 14 14 11 14 14 13 14 14 14 14
9 8 8 11 12 12 12 10 9 9 8 8 9 10 11 10 10 10 10 9 9 11 12 12 12 14 17 14 14 16 14 12 12 11 13 16 17 15 16 16 15 15 15 14 13